Back to catalog

AMAZONAS NEXUS

AliveCommunicationsGEO
NORAD 55508·PAYLOAD·🇧🇷 Brazil

Launched Feb 7, 2023 from Cape Canaveral Space Force Station

Loading…

TLE

FreshSource: Space-Track

Epoch: Sep 14, 2026, 10:05 UTC

1 55508U 23017A   26257.42051113 -.00000291  00000-0  00000-0 0  9998
2 55508   0.0443  30.3796 0002763 100.5682 312.8438  1.00270932  7936

Track AMAZONAS NEXUS in real time with AllMySat

Download on the App Store